DO-111
1 47963U 21022AH 22041.22710060 .00009844 00000-0 61525-3 0 9990
2 47963 97.5433 304.3907 0017361 206.7448 153.2887 15.09526608 47734
MO-110
1 47964U 21022AJ 22041.72530995 .00005709 00000-0 37155-3 0 9991
2 47964 97.5431 304.6183 0018270 206.3231 153.7070 15.08213469 47778
FEES
1 48082U 21022AL 22041.67151565 .00008011 00000-0 52188-3 0 9991
2 48082 97.5438 304.4292 0014604 203.1255 156.9318 15.08102031 47462
RamSat
1 48850U 98067SL 22041.82632066 .00035729 00000-0 50280-3 0 9991
2 48850 51.6387 236.7366 0003394 292.3558 67.7074 15.56301203 37538
MO-112
1 48868U 98067SP 22041.79180075 .00117069 00000-0 11145-2 0 9998
2 48868 51.6358 231.9930 0003643 260.9506 99.1078 15.65939115 36373
TUBIN
1 48900U 21059X 22041.89068469 .00003675 00000-0 21268-3 0 9990
2 48900 97.5341 172.4779 0010360 171.4926 306.3522 15.12828610 34775
IT-SPINS
1 49017U 21013G 22041.08458094 .00006363 00000-0 27137-3 0 9996
2 49017 51.6006 288.0519 0007282 334.3173 25.7442 15.24142020 34346
LEDSAT
1 49069U 21073D 22041.72268886 .00002683 00000-0 17874-3 0 9996
2 49069 97.5389 117.1473 0028042 11.8917 348.2967 15.07641541 26739
CUTE
1 49263U 21088D 22041.46327441 .00003438 00000-0 26532-3 0 9992
2 49263 97.6073 111.9279 0021213 136.1404 224.1509 15.02049512 20358
Binar-1
1 49272U 98067SR 22041.82440445 .00037984 00000-0 56467-3 0 9996
2 49272 51.6388 239.7078 0005434 203.1297 156.9450 15.54769964 19885
Maya-3
1 49273U 98067SS 22041.78704263 .00045987 00000-0 65265-3 0 9991
2 49273 51.6387 239.4587 0005471 202.4270 157.6483 15.55945911 19884
Maya-4
1 49274U 98067ST 22041.79170874 .00045175 00000-0 64341-3 0 9991
2 49274 51.6387 239.4899 0005413 201.1103 158.9666 15.55858075 19889
CUAVA-1
1 49275U 98067SU 22041.81454456 .00033625 00000-0 48775-3 0 9996
2 49275 51.6406 239.3855 0005352 203.1270 275.1847 15.55500545 19836
TeikyoSat 4
1 49396U 21102B 22041.52028226 .00001631 00000-0 13413-3 0 9999
2 49396 97.5560 103.4097 0017880 325.1125 34.8926 15.00374334 14010
Z-Sat
1 49399U 21102E 22041.74685357 .00000688 00000-0 56722-4 0 9992
2 49399 97.5566 103.9355 0019867 305.6261 54.3113 15.02097093 14068
KOSEN 1
1 49402U 21102H 22041.75824000 .00001589 00000-0 12210-3 0 9992
2 49402 97.5504 103.9893 0020341 293.2442 66.6641 15.03011856 14071
HO-113
1 50466U 21131B 22041.50618200 .00000128 00000-0 56489-4 0 9997
2 50466 98.5918 118.7723 0005169 153.8502 206.2949 14.38441367 6668
Grizu-263a
1 51025U 22002AT 22041.72182268 .00010132 00000-0 56880-3 0 9991
2 51025 97.5153 111.0045 0014788 138.0977 222.1389 15.13438496 4252
IRIS-A
1 51044U 22002BN 22041.47500557 .00003595 00000-0 21104-3 0 9995
2 51044 97.4995 110.6601 0010566 136.3593 223.8475 15.12317991 4219
DELFI-PQ
1 51074U 22002CU 22041.43390812 .00007718 00000-0 41948-3 0 9994
2 51074 97.5231 110.8058 0014900 168.6692 191.4878 15.14677801 4216
VZLUSAT 2
1 51085U 22002DF 22041.41503871 .00003011 00000-0 18124-3 0 9997
2 51085 97.5033 110.6033 0015743 148.3414 211.8766 15.11480716 4208
GASPACS
1 51439U 98067TB 22041.59073388 .00068841 00000-0 11209-2 0 9996
2 51439 51.6396 243.3872 0007234 126.7838 233.3817 15.51980454 2375
GT 1
1 51510U 98067TH 22041.85677280 .00048083 00000-0 81443-3 0 9990
2 51510 51.6425 242.1552 0007882 122.4740 237.7035 15.51024012 1226
/EX
1
0
SB KEPS @ AMSAT $ORB22034.N
2Line Orbital Elements 22034.AMSAT
HR AMSAT ORBITAL ELEMENTS FOR AMATEUR SATELLITES IN NASA FORMAT
FROM WA5QGD FORT WORTH,TX February 3, 2022
BID: ORB22034.N
DECODE 2-LINE ELSETS WITH THE FOLLOWING KEY:
1 AAAAAU 00 0 0 BBBBB.BBBBBBBB .CCCCCCCC 00000-0 00000-0 0 DDDZ
2 AAAAA EEE.EEEE FFF.FFFF GGGGGGG HHH.HHHH III.IIII JJ.JJJJJJJJKKKKKZ
KEY: A-CATALOGNUM B-EPOCHTIME C-DECAY D-ELSETNUM E-INCLINATION F-RAAN
G-ECCENTRICITY H-ARGPERIGEE I-MNANOM J-MNMOTION K-ORBITNUM Z-CHECKSUM
TO ALL RADIO AMATEURS BT
AO-07
1 07530U 74089B 22034.84518617 -.00000047 00000-0 -98129-5 0 9991
2 07530 101.8888 14.3772 0012053 299.0066 176.3781 12.53652672160726
UO-11
1 14781U 84021B 22034.70295709 .00000608 00000-0 80069-4 0 9997
2 14781 97.6075 28.3348 0009543 48.3456 311.8574 14.83431468 20212
LO-19
1 20442U 90005G 22034.67223904 .00000072 00000-0 43033-4 0 9996
2 20442 98.7757 357.6298 0011346 196.7783 163.3026 14.33019911673945
HUBBLE
1 20580U 90037B 22034.56086428 .00001884 00000-0 10214-3 0 9996
2 20580 28.4711 335.5845 0002641 37.2069 128.6910 15.09996056545958
MET-2/21
1 22782U 93055A 22034.68518694 .00000061 00000-0 41249-4 0 9992
2 22782 82.5498 120.4180 0022277 6.4544 146.8541 13.83844640435505
AO-27
1 22825U 93061C 22034.53745395 .00000041 00000-0 33776-4 0 9995
2 22825 98.9025 62.6385 0009499 83.3208 276.9054 14.30142702479017
IO-26
1 22826U 93061D 22034.52285656 .00000048 00000-0 36173-4 0 9995
2 22826 98.8967 62.5123 0009961 71.5260 288.7003 14.30484704479265
FO-29
1 24278U 96046B 22034.52156586 -.00000031 00000-0 73682-5 0 9993
2 24278 98.5354 76.5237 0349278 270.7470 85.3671 13.53109900257497
NOAA-15
1 25338U 98030A 22034.76382697 .00000078 00000-0 51177-4 0 9990
2 25338 98.6603 65.9438 0009784 332.3212 27.7446 14.26087096233960
GO-32
1 25397U 98043D 22034.62132649 .00000027 00000-0 31550-4 0 9991
2 25397 98.8016 344.8624 0002148 113.5796 246.5607 14.23730415224387
ISS
1 25544U 98067A 22034.72187436 .00005633 00000-0 10750-3 0 9992
2 25544 51.6450 277.5435 0006750 94.3504 8.7010 15.49753033324486
NO-44
1 26931U 01043C 22034.71882732 .00000056 00000-0 53270-4 0 9990
2 26931 67.0513 43.5735 0007195 279.8905 80.1384 14.30659222 62279
SO-50
1 27607U 02058C 22034.57538613 .00000699 00000-0 11821-3 0 9996
2 27607 64.5564 351.5010 0068403 321.3659 38.2559 14.75898488 28610
CO-55
1 27844U 03031E 22034.49379096 .00000139 00000-0 82112-4 0 9991
2 27844 98.6808 44.1941 0010735 126.6309 233.5857 14.22376409964822
CO-57
1 27848U 03031J 22034.76740642 .00000128 00000-0 77638-4 0 9999
2 27848 98.6857 45.0064 0010472 138.6294 221.5679 14.21944175964683
RS-22
1 27939U 03042A 22034.80177086 .00000579 00000-0 11178-3 0 9999
2 27939 98.1689 175.7528 0011556 269.3853 90.6040 14.67122314981448
NOAA-18
1 28654U 05018A 22034.70075946 .00000162 00000-0 11157-3 0 9995
2 28654 98.9661 105.1601 0013934 353.3778 6.7208 14.12684068861093
CO-58
1 28895U 05043F 22034.85092909 .00000736 00000-0 14907-3 0 9997
2 28895 98.0852 168.4865 0016399 197.7844 162.2786 14.64076766867866
Falconsat-3
1 30776U 07006E 22034.43925648 .00015766 00000-0 32633-3 0 9993
2 30776 35.4341 52.0475 0003930 226.1593 133.8812 15.44916271828791
CO-65
1 32785U 08021C 22034.52608840 .00001449 00000-0 15944-3 0 9994
2 32785 97.6409 9.8105 0011922 323.8025 36.2385 14.89036634746551
AAUSAT2
1 32788U 08021F 22034.93928749 .00002995 00000-0 26985-3 0 9999
2 32788 97.5238 25.1942 0010455 205.1450 154.9264 14.96263925748466
DO-64
1 32789U 08021G 22034.34322611 .00006371 00000-0 38830-3 0 9995
2 32789 97.3547 65.7162 0012920 71.3506 288.9126 15.10628960751668
CO-66
1 32791U 08021J 22034.46719366 .00001618 00000-0 16539-3 0 9999
2 32791 97.5972 15.4060 0011410 278.4449 81.5477 14.91857556747218
